#timestamp,LO_Frequency,Hit,StdDev 
1575075615.8,286046996.9,N
1575075635.7,286047002.8,N
1575075655.5,286047000.8,N
1575075675.3,286047000.6,N
1575075695.2,286047000.1,N
1575075715.0,286047001.9,N
1575075715.9,286047001.9,N
1575075735.7,286047000.1,N
1575075755.6,286047001.0,N
1575075775.4,286047002.7,N
1575075795.3,286047001.4,N
1575075815.1,286047005.8,N
1575075816.0,286047005.8,N
1575075835.8,286047002.1,N
1575075855.7,286046998.8,N
1575075875.5,286046998.4,N
1575075895.4,286046997.2,N
1575075915.2,286046999.0,N
1575075935.0,286047002.6,N
1575075935.9,286047002.6,N
1575075955.8,286047000.8,N
1575075975.6,286046997.0,N
1575075995.4,286046997.0,N
1575076015.3,286046999.2,N
1575076035.1,286046998.5,N
1575076055.9,286046998.1,N
1575076075.7,286047002.7,N
1575076095.5,286047000.2,N
1575076115.4,286047002.9,N
1575076135.2,286047006.1,N
1575076155.0,286047003.5,N
1575076155.9,286047003.5,N
1575076175.8,286047005.8,N
1575076195.6,286047003.5,N
1575076215.5,286047001.7,N
1575076235.3,286047004.0,N
1575076255.1,286047002.1,N
1575076275.9,286047002.7,N
1575076295.7,286046999.9,N
1575076315.5,286047001.9,N
1575076335.4,286047000.2,N
1575076355.2,286046999.9,N
1575076375.1,286047001.0,N
1575076376.0,286047001.0,N
1575076395.8,286046998.1,N
1575076415.6,286047001.5,N
1575076435.5,286047007.5,Y
1575076455.3,286047007.3,P
1575076475.1,286047005.4,N
1575076495.9,286047003.3,N
1575076515.7,286047002.9,N
1575076535.6,286047001.3,N
1575076555.4,286047001.7,N
1575076575.2,286047002.4,N
1575076595.1,286046999.7,N
1575076596.0,286046999.7,N
1575076615.8,286046996.5,N
1575076635.6,286046998.5,N
1575076655.5,286046999.6,N
1575076675.3,286046997.0,N
1575076695.2,286047002.5,N
1575076715.9,286047003.9,N
1575076735.7,286047000.5,N
1575076755.6,286046998.3,N
1575076775.4,286046999.1,N
1575076795.2,286047005.6,N
1575076815.1,286047001.6,N
1575076816.0,286047001.6,N
1575076835.8,286047005.1,N
1575076855.7,286047003.6,N
1575076875.5,286047003.4,N
1575076895.3,286047004.4,N
1575076915.2,286047002.3,N
1575076935.0,286046999.8,N
1575076935.9,286046999.8,N
1575076955.7,286047002.8,N
1575076975.6,286047002.1,N
1575076995.4,286047001.7,N
1575077015.3,286047002.0,N
1575077035.1,286047001.6,N
1575077036.0,286047001.6,N
1575077055.8,286046999.7,N
1575077075.7,286047004.2,N
1575077095.5,286047003.1,N
1575077115.4,286047003.8,N
1575077135.2,286047003.0,N
1575077155.0,286047001.5,N
1575077155.9,286047001.5,N
1575077175.8,286047000.2,N
1575077195.6,286046998.2,N
1575077215.4,286046998.1,N
1575077235.3,286046999.2,N
1575077255.1,286046999.7,N
1575077275.9,286046999.8,N
1575077295.7,286047005.2,N
1575077315.5,286047004.3,N
1575077335.4,286047002.7,N
1575077355.2,286047002.2,N
1575077375.0,286047001.9,N
1575077376.0,286047001.9,N
1575077395.8,286047002.5,N
1575077415.6,286047000.5,N
1575077435.5,286047001.4,N
1575077455.3,286047003.2,N
1575077475.1,286047001.5,N
1575077495.9,286047001.8,N
1575077515.7,286047003.6,N
1575077535.6,286047005.6,Y
1575077555.4,286047007.3,P
1575077575.2,286047008.2,N
1575077595.1,286047007.4,N
1575077596.0,286047007.4,N
1575077615.8,286047005.5,N
1575077635.6,286047006.1,N
1575077655.5,286047004.6,N
1575077675.3,286047001.5,N
1575077695.2,286047002.3,N
1575077715.9,286047002.5,N
1575077735.7,286047002.0,N
1575077755.6,286047001.1,N
1575077775.4,286047000.9,N
1575077795.2,286047003.6,N
1575077815.1,286047001.7,N
1575077816.0,286047001.7,N
1575077835.8,286047000.9,N
1575077855.7,286047000.1,N
1575077875.5,286047000.2,N
1575077895.3,286047001.1,N
1575077915.2,286047000.7,N
1575077935.9,286047000.8,N
1575077955.7,286046999.8,N
1575077975.6,286047000.5,N
1575077995.4,286047002.0,N
1575078015.3,286047005.2,N
1575078035.1,286047003.2,N
1575078055.8,286047001.7,N
1575078075.7,286047003.2,N
1575078095.5,286047005.0,N
1575078115.4,286047006.0,N
1575078135.2,286047007.1,N
1575078155.0,286047007.6,Y
1575078155.9,286047007.6,P
1575078175.8,286047002.2,N
1575078195.6,286047004.0,N
1575078215.4,286047001.0,N
1575078235.3,286046999.0,N
1575078255.1,286046999.5,N
1575078275.9,286047002.5,N
1575078295.7,286047001.2,N
1575078315.5,286047001.0,N
1575078335.4,286046998.6,N
1575078355.2,286046998.1,N
1575078375.0,286047000.4,N
1575078375.9,286047000.4,N
1575078395.8,286047000.4,N
1575078415.6,286046999.9,N
1575078435.5,286046999.2,N
1575078455.3,286046993.3,N
1575078475.1,286046992.6,N
1575078495.9,286046989.6,Y
1575078515.7,286046987.3,P
1575078535.5,286046992.8,N
1575078555.4,286046990.7,N
1575078575.2,286046990.5,N
1575078595.1,286046989.0,N
1575078596.0,286046989.0,N
1575078615.8,286046990.9,N
1575078635.6,286046989.6,N
1575078655.5,286046991.4,N
1575078675.3,286046990.1,N
1575078695.1,286046991.0,N
1575078715.9,286046990.8,Y
1575078735.7,286047000.3,P
1575078755.6,286047000.3,N
1575078775.4,286047002.5,N
1575078795.2,286047000.0,N
1575078815.1,286047000.8,N
1575078816.0,286047000.8,N
1575078835.8,286047003.5,N
1575078855.7,286047006.0,N
1575078875.5,286047004.1,N
1575078895.3,286047003.1,N
1575078915.2,286047005.8,N
1575078935.0,286047002.6,N
1575078935.9,286047002.6,N
1575078955.7,286047004.3,N
1575078975.6,286047002.0,N
1575078995.4,286046999.8,N
1575079015.3,286047001.8,N
1575079035.1,286047003.8,N
1575079036.0,286047003.8,N
1575079055.8,286047003.7,N
1575079075.7,286047004.9,N
1575079095.5,286047008.7,N
1575079115.3,286047004.7,N
1575079135.2,286047003.4,N
1575079155.0,286047003.6,N
1575079155.9,286047003.6,N
1575079175.8,286047002.1,N
1575079195.6,286047004.3,N
